Retour au catalogue

FENGYUN 1C DEB

ActifSSO
NORAD 30550·DEBRIS·🇨🇳 China

Lancé May 10, 1999 depuis Taiyuan Satellite Launch Center

Loading…

Prochains Passages (prochaines 24 heures)

TLE

FraisSource: Space-Track

Époque: Sep 13, 2026, 04:15 UTC

1 30550U 99025AKQ 26256.17736227  .00001989  00000-0  11965-2 0  9995
2 30550  99.0438 155.1655 0125867 256.2461 260.7698 14.04115267992448

Suivez FENGYUN 1C DEB en temps réel avec AllMySat

Download on the App Store